Theta_e
310 310 311 311 311 311 311 311 310 309 308 306 302 302 293 291 290 299 303 305 300 294 287 291 291 287 290 294 293 293 292 291 291 290 292 289 291 289 288 288 287 288 286 286 286 286 283 285 284 288 289 289 291 293 293 294 292 294 290 292 292 300 288 285 287 289 291 294 296 297 298 296 294 295 296 294 292 293 291 292 291 292 290 292 292 290 295
311 311 311 312 312 311 311 311 311 310 309 306 305 298 293 294 293 295 303 305 299 292 283 283 285 289 291 291 291 294 293 292 291 290 291 291 290 288 289 290 293 290 289 287 285 288 279 288 287 284 290 287 294 293 293 295 291 291 291 288 295 286 288 286 280 281 286 291 293 294 296 295 291 290 292 294 295 294 294 293 293 292 291 294 290 288 295
311 312 312 312 312 311 311 311 311 311 311 310 305 297 296 295 297 295 298 302 298 288 288 286 284 287 287 287 288 290 292 293 293 292 290 293 291 291 290 292 292 289 290 288 289 290 285 283 288 288 290 288 295 295 295 295 292 294 297 299 299 291 289 286 277 277 278 281 282 281 281 286 290 292 292 293 292 292 292 289 290 288 292 294 292 293 299
312 312 312 312 312 311 311 311 311 311 311 310 305 299 297 289 284 291 292 295 294 293 294 291 288 285 286 285 288 290 288 292 294 294 292 293 292 291 293 291 291 289 289 287 287 287 289 285 284 285 286 288 293 294 293 295 293 296 301 301 298 292 292 289 285 282 281 284 284 289 291 289 286 289 291 291 293 294 293 292 289 287 288 292 293 296 298
312 312 313 312 312 311 311 311 311 311 311 311 303 298 293 291 285 286 285 291 291 289 290 290 290 285 289 282 288 287 288 290 291 295 289 293 292 292 292 290 288 288 288 286 285 287 286 288 286 285 286 288 291 295 294 295 297 299 298 299 295 291 287 288 287 286 287 288 288 290 291 288 289 288 288 291 291 292 292 290 289 294 290 289 294 296 296
312 313 313 312 312 312 311 311 311 311 310 310 301 289 291 284 289 292 293 287 284 285 286 290 289 290 290 286 291 288 288 289 286 292 294 294 295 289 290 291 291 289 287 287 283 285 285 286 284 287 287 288 290 289 293 292 296 298 294 297 291 288 285 288 288 287 289 290 290 291 290 290 290 290 290 289 291 291 290 291 294 294 291 291 295 295 296
312 313 313 313 312 312 311 311 311 311 309 308 300 289 292 292 293 294 297 290 291 288 290 291 290 287 289 290 290 288 289 288 290 289 290 292 290 292 283 286 288 289 290 287 283 283 280 281 285 285 285 286 286 285 290 293 297 295 293 293 295 290 286 288 288 287 288 289 289 290 289 289 289 290 291 291 292 294 298 299 298 296 294 296 297 297 297
312 313 313 313 313 312 312 312 311 310 308 307 299 295 291 291 292 292 298 295 293 292 290 290 288 285 291 286 288 290 289 288 290 292 290 286 288 294 288 288 289 289 289 287 283 285 286 285 283 286 286 286 287 285 286 288 293 295 291 292 294 290 286 292 289 286 286 288 290 290 289 289 288 290 291 293 298 301 305 303 303 302 297 297 297 296 297
312 312 313 313 312 312 312 312 311 310 309 303 301 299 302 301 303 301 293 290 292 293 292 289 287 284 287 286 290 291 290 289 292 290 294 290 288 290 288 289 289 290 289 288 287 289 288 288 288 289 288 284 288 285 287 293 287 291 289 290 291 291 287 290 288 284 283 288 289 290 291 290 289 289 292 297 299 299 306 301 306 303 296 296 295 294 296
312 313 313 313 312 312 312 312 312 310 309 303 303 298 306 304 306 304 298 289 295 290 292 291 288 283 289 291 291 290 290 292 293 288 294 294 294 292 290 290 289 288 288 287 288 291 291 291 292 293 293 293 292 292 291 292 289 288 288 292 289 290 288 286 286 283 283 288 290 287 287 290 290 291 295 297 300 301 302 310 310 308 307 300 295 293 310
312 312 313 313 313 313 313 313 313 311 309 304 301 300 303 300 298 299 298 289 291 291 290 289 287 292 292 293 291 292 292 292 293 286 287 294 293 295 293 291 288 287 287 290 295 295 295 296 296 296 294 293 292 292 292 292 293 292 290 288 289 290 288 286 289 282 282 286 286 287 287 283 286 298 300 300 297 300 297 301 306 307 308 307 311 312 316
312 313 312 313 312 313 313 313 313 311 309 308 307 303 305 306 303 300 294 287 290 292 290 288 290 292 291 292 292 291 291 292 291 293 289 291 292 294 292 292 290 284 291 296 297 297 297 297 295 294 293 292 292 292 291 290 290 296 294 290 289 288 289 287 289 284 281 284 286 288 282 285 300 302 301 302 302 302 299 301 306 305 306 307 308 310 313
312 312 312 313 313 313 313 313 313 312 311 310 308 303 308 309 302 299 296 291 288 290 289 290 294 293 293 292 292 293 294 294 294 294 293 291 291 292 293 292 290 292 298 296 296 294 289 287 288 288 288 290 290 290 289 289 289 292 293 293 290 288 287 288 287 286 286 280 277 278 282 296 300 303 301 303 304 302 301 303 307 304 305 305 305 307 311
312 312 312 313 313 313 313 313 312 313 312 310 307 307 308 307 301 299 296 291 290 293 293 292 293 292 293 293 293 293 294 292 292 292 290 293 291 291 294 296 296 298 298 297 293 290 286 285 283 284 286 289 290 288 291 291 290 290 291 292 293 291 290 289 284 288 278 280 277 281 290 294 296 295 296 299 296 298 297 293 303 305 305 305 305 307 309
312 312 313 313 313 313 313 313 313 313 312 310 309 308 307 307 305 301 301 296 289 293 294 288 292 293 293 293 293 291 290 290 289 289 293 294 292 294 295 297 299 298 298 293 287 287 286 285 282 281 282 281 279 282 290 287 292 292 293 293 293 293 287 290 285 284 287 279 276 276 283 284 287 296 300 304 303 304 304 300 301 307 305 307 306 306 306
312 312 312 313 313 313 313 313 313 313 313 310 310 308 308 309 308 306 301 296 293 286 290 295 296 294 292 292 293 292 290 289 290 291 290 289 291 294 297 298 299 299 296 294 288 287 286 283 281 281 279 281 284 283 283 288 287 291 294 293 292 293 293 290 286 284 284 281 275 274 277 285 291 294 299 303 304 305 307 300 298 305 306 307 307 306 306
312 312 313 313 314 314 314 314 314 313 312 311 308 308 307 311 307 304 301 298 295 290 298 299 298 297 295 293 295 292 292 289 291 288 287 288 290 292 294 297 298 297 295 291 289 287 284 282 283 283 284 286 282 282 285 285 284 285 290 291 290 288 287 287 284 283 284 283 279 275 281 282 293 297 300 302 306 307 304 294 295 302 306 306 307 305 305
312 313 313 314 314 314 314 314 314 313 312 312 309 307 307 311 310 308 303 299 294 293 298 300 297 293 292 294 292 295 297 296 295 295 291 292 291 288 291 294 292 297 297 288 288 283 283 283 281 281 281 288 287 286 279 285 283 283 283 285 284 285 286 287 283 284 285 285 281 281 284 296 298 298 301 303 309 307 296 289 295 304 305 306 306 306 306
313 313 313 314 313 314 314 314 313 313 313 311 310 309 308 310 310 309 304 300 297 290 298 303 300 297 298 301 297 297 297 296 295 291 290 288 286 291 293 294 295 287 292 287 287 284 284 284 289 285 282 285 288 281 286 284 282 288 288 284 285 286 287 287 287 284 283 283 281 280 286 296 300 301 303 307 304 293 290 301 307 305 304 305 305 305 306
313 313 313 313 314 314 314 314 313 313 313 312 309 305 307 311 311 309 303 298 299 295 298 297 299 297 301 297 292 291 293 296 297 293 289 284 289 294 290 285 288 291 288 288 285 288 285 282 284 286 284 284 285 288 285 285 288 284 285 289 286 286 285 284 285 289 289 289 284 283 278 291 301 302 303 301 293 293 303 306 307 307 305 304 304 304 305
312 313 313 313 313 314 314 314 313 313 313 313 310 306 304 310 311 311 309 304 299 294 294 300 301 300 301 299 299 299 296 293 293 291 291 291 293 292 282 283 286 289 287 289 283 284 286 284 286 285 288 286 287 287 282 283 285 292 290 288 287 291 285 285 287 291 285 285 282 283 292 296 304 301 292 298 299 303 302 303 303 306 306 304 303 304 306
313 313 313 313 313 314 313 313 313 312 313 313 311 307 302 307 310 311 311 308 301 297 297 299 302 302 304 304 304 303 301 300 301 301 296 293 293 292 292 293 292 290 292 293 289 289 290 289 291 287 284 286 291 284 286 283 281 287 294 293 283 292 288 290 284 293 287 286 291 295 300 300 304 303 301 302 302 303 304 302 302 302 303 306 303 303 306
312 313 313 313 313 313 313 313 312 312 312 313 310 304 301 303 304 310 308 303 305 305 306 303 303 303 305 306 308 307 306 306 304 303 302 296 292 291 291 291 292 297 297 296 289 289 289 290 287 291 287 288 285 285 287 286 284 287 285 293 292 297 296 298 294 290 294 296 299 299 297 298 300 304 304 302 301 302 303 302 300 301 303 305 304 304 305
312 312 312 313 313 313 312 312 312 312 312 312 310 305 303 303 303 306 305 304 301 295 296 295 293 293 296 299 303 308 309 307 306 306 307 303 293 293 295 297 300 299 297 297 297 293 292 291 290 292 286 290 292 285 283 283 285 289 288 288 292 295 297 295 289 291 288 288 295 294 294 296 298 302 304 304 304 303 303 302 302 302 303 305 306 305 306
312 312 312 312 312 312 312 312 312 311 312 311 312 311 309 306 306 304 299 296 297 294 290 293 294 300 303 305 306 304 306 309 310 307 306 305 301 296 295 300 303 297 296 298 299 295 294 290 290 290 285 292 293 285 291 286 286 293 285 287 289 290 297 292 290 290 289 290 293 294 295 297 300 304 301 301 302 302 302 303 303 304 305 305 306 307 307
311 312 312 312 312 312 312 312 311 312 312 312 312 307 305 303 305 307 305 302 302 300 293 291 294 302 304 303 303 304 307 308 308 307 306 305 305 304 302 305 302 307 303 302 298 295 292 291 291 291 288 289 298 287 286 292 291 294 290 287 293 294 296 286 290 288 291 294 295 294 295 300 302 303 304 303 302 301 302 302 302 303 303 304 305 307 308
311 311 312 312 312 311 312 311 312 312 311 311 308 305 304 304 307 306 303 303 296 291 293 290 294 298 302 301 305 307 309 306 306 306 306 305 305 305 303 301 301 302 302 299 300 296 293 292 291 289 292 291 296 292 294 292 292 290 289 292 296 293 287 291 290 286 286 287 290 293 288 289 294 297 299 300 302 302 301 302 301 302 302 303 303 305 309
311 311 312 311 311 311 311 312 312 311 310 311 309 306 306 306 306 307 307 307 300 292 293 293 293 298 303 299 305 306 308 308 305 304 305 305 305 304 305 304 303 300 300 297 292 293 292 290 289 294 296 297 292 290 297 296 295 291 290 291 295 290 291 291 287 286 286 292 294 296 295 294 295 297 299 301 302 302 300 300 301 302 303 304 303 303 305
311 311 311 311 311 311 311 311 312 311 311 309 306 306 306 307 308 309 310 312 309 303 299 298 298 294 292 297 304 304 308 307 305 304 303 303 304 304 303 304 303 303 302 300 297 294 292 292 296 291 291 298 294 290 292 286 287 285 289 294 296 297 298 295 294 294 295 296 296 297 296 294 296 299 300 301 303 302 301 301 302 302 303 304 304 305 304
311 311 311 311 311 311 311 311 312 311 309 306 306 305 300 301 304 307 310 312 310 304 295 291 287 290 297 301 301 303 306 306 305 304 303 302 302 303 304 304 303 304 302 298 297 292 295 295 297 299 300 303 293 292 288 288 286 289 295 296 297 297 297 298 299 295 293 297 298 298 298 298 300 301 301 302 303 304 301 301 301 302 304 305 305 305 307
311 311 311 311 311 310 311 311 312 311 309 302 302 297 291 289 299 310 311 312 310 304 298 296 293 297 295 301 302 301 303 304 301 302 303 302 300 302 302 302 301 303 296 295 295 294 296 293 294 295 301 300 297 291 288 287 285 288 293 296 296 296 296 297 298 299 298 298 299 299 299 299 301 301 302 302 302 303 303 303 305 307 307 307 307 308 309
311 311 311 311 310 310 311 311 312 310 303 302 297 296 296 297 300 305 313 312 309 303 296 291 290 287 289 297 302 306 304 304 303 300 298 303 297 300 299 299 295 300 300 293 295 293 292 295 295 295 294 298 297 291 291 288 285 287 294 295 297 297 297 297 297 298 298 299 297 296 295 296 298 297 298 304 303 303 302 302 303 303 306 307 308 308 309
311 310 310 310 310 311 311 311 312 309 303 306 308 309 308 308 308 310 312 307 305 301 300 292 288 289 288 294 300 303 306 299 297 293 293 300 297 297 294 299 297 296 307 296 290 289 295 295 295 292 295 298 293 291 287 287 289 294 295 296 296 297 297 298 298 298 298 298 298 293 292 294 296 299 302 303 304 304 303 302 303 303 303 304 305 306 309
310 310 309 310 311 311 311 311 310 310 308 303 301 302 305 308 309 309 308 305 300 299 294 290 288 286 289 296 296 301 306 296 293 291 290 298 298 294 293 295 296 294 293 293 293 293 294 297 292 292 295 293 294 290 285 289 294 295 296 296 297 297 297 296 296 296 297 297 298 298 297 298 299 300 300 301 302 304 305 303 303 301 301 302 303 306 307
310 309 310 311 311 312 312 310 302 304 300 300 300 303 305 310 309 311 310 304 296 293 292 291 289 286 287 289 287 293 303 298 295 295 291 293 299 295 294 290 290 289 291 297 290 290 290 293 296 291 287 294 291 286 287 291 293 294 295 295 296 296 296 294 295 296 297 298 297 297 298 298 297 296 297 299 300 302 303 304 304 303 301 301 302 302 305
309 309 310 311 311 312 307 308 303 302 301 302 302 311 314 314 313 305 304 303 299 291 290 290 290 287 286 284 286 294 307 299 296 295 293 295 295 297 295 289 288 291 297 293 288 288 288 296 293 286 293 288 286 288 290 294 293 294 295 295 296 296 295 295 295 296 297 297 297 297 296 297 296 296 297 298 299 300 302 303 303 302 301 300 301 302 302
310 311 312 311 306 304 300 301 308 305 301 301 308 316 316 314 309 308 305 302 302 302 294 290 289 289 290 289 291 295 300 291 291 291 291 292 292 297 293 288 286 294 292 289 289 288 291 298 289 285 286 286 289 296 296 296 295 295 294 295 297 297 297 296 297 297 295 295 295 295 295 295 295 296 296 297 298 299 300 300 302 302 300 300 301 302 302
310 310 303 302 302 300 300 303 304 305 315 314 315 306 301 304 297 297 297 294 298 304 295 291 288 290 293 293 290 296 298 291 292 291 291 294 290 289 296 293 292 295 284 284 286 293 291 289 286 285 287 293 296 297 297 298 298 299 297 297 297 297 297 297 297 296 294 292 292 293 294 294 294 295 295 295 297 298 299 301 302 304 304 302 302 303 303
308 303 301 300 301 299 298 302 308 315 308 308 305 303 300 298 293 292 295 295 298 295 296 293 291 288 291 292 293 299 297 295 292 291 289 294 293 289 295 286 291 289 278 283 288 296 285 284 287 286 286 292 293 295 298 298 299 299 299 298 298 298 297 296 297 296 294 293 294 294 294 292 292 293 295 296 297 298 299 300 301 302 304 305 304 304 303
303 302 302 301 303 302 305 308 314 311 309 302 299 297 295 300 295 289 292 289 289 297 296 289 291 291 295 295 293 292 301 295 291 290 288 292 298 289 293 291 290 287 278 276 283 294 283 280 285 287 286 291 293 297 298 298 297 298 298 299 299 299 297 296 297 297 297 297 298 297 296 296 296 295 295 296 296 296 297 299 300 301 302 303 308 308 305
303 306 308 306 304 300 301 305 304 305 305 302 300 299 292 287 293 294 295 289 285 288 295 292 294 294 298 297 296 294 299 305 298 297 292 289 297 296 288 284 293 281 274 274 286 290 283 282 285 285 286 294 295 297 298 297 297 299 299 299 299 299 298 297 297 297 298 297 297 297 297 297 296 296 296 297 297 297 297 298 299 300 301 301 303 307 309
305 305 304 303 304 302 304 305 305 303 304 302 294 286 286 292 294 289 292 288 286 290 293 296 293 292 293 299 298 296 297 299 300 301 293 289 296 289 285 286 288 280 278 284 290 282 282 279 282 283 292 296 297 299 297 296 298 298 298 299 301 300 299 298 297 297 298 297 298 298 297 296 296 296 296 296 296 297 297 298 298 299 300 301 303 305 307
308 306 304 301 303 300 302 293 299 294 285 285 282 283 285 282 286 288 288 292 295 294 293 299 298 298 301 305 299 301 298 304 300 299 295 289 293 294 288 282 283 281 287 292 283 278 279 283 284 287 294 296 298 298 298 297 297 297 298 299 298 300 299 298 297 297 297 297 298 298 298 296 296 296 297 297 297 297 298 299 299 299 299 300 301 302 304
308 308 305 304 299 302 300 290 299 299 288 281 281 282 283 282 283 286 288 287 288 293 294 294 292 293 290 297 296 297 300 300 299 295 294 296 293 289 287 281 282 291 293 284 280 276 280 286 291 293 295 297 299 299 298 298 297 296 297 298 299 299 298 297 298 297 297 298 298 298 298 297 296 296 296 296 297 296 296 297 299 300 300 299 300 300 302
306 297 290 293 290 293 289 284 288 283 284 284 286 284 284 285 285 282 286 291 294 293 295 295 294 294 295 299 299 299 297 294 298 293 288 292 291 288 286 284 288 289 285 280 278 278 283 286 293 295 296 297 298 299 298 297 296 296 295 297 298 299 298 297 297 297 297 298 298 298 298 298 297 296 296 296 296 297 296 296 298 298 298 298 299 299 300
301 294 289 287 286 287 286 284 282 283 287 290 289 287 286 287 288 290 293 295 293 294 294 295 296 297 295 298 295 293 295 294 293 292 292 289 287 286 291 293 289 283 282 279 276 277 281 288 293 295 297 298 299 299 299 298 297 296 295 295 297 298 298 298 297 297 298 298 298 298 298 298 297 297 296 296 296 296 297 297 298 298 298 297 298 299 299
297 297 286 287 286 286 290 287 285 287 292 290 290 290 291 292 292 293 293 295 294 295 296 296 295 299 295 296 296 292 292 293 291 292 290 285 286 288 293 286 281 282 279 277 278 280 284 290 295 297 299 300 300 300 300 299 297 295 295 295 297 297 297 298 298 298 298 298 298 298 298 298 298 298 298 297 296 296 297 298 297 298 298 297 298 299 299
296 293 290 290 285 286 287 288 290 291 293 295 291 291 292 294 292 292 295 296 296 297 295 296 294 291 292 292 292 290 290 289 288 286 292 289 288 285 280 282 280 283 282 278 280 284 287 291 294 297 299 301 301 300 300 299 297 296 295 294 294 296 296 296 298 298 299 297 297 297 297 298 297 298 297 297 296 296 297 297 297 297 297 298 298 298 298
294 290 292 286 288 288 288 291 292 292 291 292 292 293 293 293 294 295 296 296 296 297 297 294 295 292 288 290 288 288 287 288 283 282 287 285 282 279 282 278 278 276 282 286 285 287 289 292 296 297 299 300 301 301 300 298 297 297 295 294 294 295 297 297 297 298 298 298 297 297 298 299 298 297 297 297 296 296 297 297 297 297 297 297 297 297 298
297 293 292 288 292 290 292 291 291 290 289 290 291 292 291 292 291 294 297 299 298 297 296 297 296 290 288 289 282 281 282 285 287 285 284 284 285 283 279 275 277 278 281 284 287 291 293 294 295 296 297 297 301 300 297 297 299 299 295 295 296 297 298 298 297 297 296 296 298 298 298 299 297 297 297 296 297 298 297 297 296 296 296 297 297 296 297
292 290 290 291 293 290 291 292 291 289 288 289 290 291 291 292 292 292 297 298 295 292 292 291 288 285 283 280 278 279 283 289 287 285 284 284 285 281 277 275 277 282 285 290 294 295 296 296 296 296 297 297 297 297 297 297 297 296 295 295 296 298 298 297 296 296 295 295 296 302 298 297 297 298 299 298 298 298 297 297 298 297 297 297 297 296 296
289 291 294 295 296 294 295 294 293 292 293 293 292 293 293 294 295 296 299 295 292 291 290 290 288 284 280 282 284 285 289 287 284 285 284 284 285 282 281 282 284 287 290 292 294 295 298 296 296 299 298 298 301 298 297 297 297 295 295 295 296 297 296 296 295 295 295 295 294 295 297 299 299 299 300 299 297 297 296 296 298 297 297 297 298 298 297
Wind_Speed
19 19 18 18 18 15 15 19 19 18 21 11 11 4 4 6 2 7 11 17 5 9 6 2 5 2 2 5 1 3 2 3 3 4 7 4 4 3 4 2 1 1 1 1 0 0 1 2 3 2 2 2 4 2 2 3 3 3 2 5 2 7 1 2 7 6 11 16 15 7 2 4 1 3 2 7 4 5 5 6 4 7 2 5 6 10 9
17 18 18 16 15 14 15 16 18 15 16 9 8 3 3 3 4 7 7 16 4 13 6 5 5 3 4 2 2 4 2 5 7 4 6 4 4 1 1 3 3 0 3 1 0 1 1 1 2 1 1 2 3 5 3 2 1 3 2 3 4 4 2 2 4 6 5 7 5 4 4 6 4 4 6 5 7 8 9 8 3 4 8 9 8 13 12
18 18 16 15 14 13 14 16 16 15 13 10 7 5 4 3 2 3 7 10 12 8 0 1 0 4 5 4 7 8 3 4 3 3 3 4 2 2 2 2 3 2 2 2 1 1 3 1 2 0 1 3 1 4 4 1 0 2 7 8 6 3 3 1 2 3 5 9 9 2 6 8 9 5 7 7 8 11 11 4 3 6 5 8 8 11 6
18 18 16 15 13 13 13 15 15 15 12 10 4 4 3 4 3 3 5 6 6 6 2 3 1 0 4 4 3 4 5 4 4 5 2 6 4 1 1 3 1 6 7 4 4 4 0 2 2 1 2 2 2 4 5 4 2 5 8 6 4 3 3 5 4 4 6 3 2 2 2 6 5 13 15 14 9 4 3 3 2 6 2 6 7 8 9
18 18 17 14 12 12 13 14 13 14 13 11 2 2 1 1 4 4 6 5 6 4 4 6 5 4 3 2 2 4 5 3 3 6 1 5 7 5 2 3 3 3 6 3 5 4 3 1 1 4 4 3 3 3 7 3 5 6 2 5 3 2 3 5 6 9 8 8 9 8 8 11 12 12 16 16 13 9 6 5 8 1 5 11 2 6 8
17 18 17 15 12 11 12 13 12 12 11 12 2 2 2 3 1 1 1 2 3 6 5 7 7 5 1 1 1 5 6 7 5 5 2 4 4 4 3 4 3 1 1 5 4 2 3 3 3 2 3 2 2 5 3 4 4 1 1 2 1 3 4 4 7 12 8 9 10 7 8 9 10 13 16 17 16 13 11 12 12 9 7 8 4 5 7
17 17 17 16 12 11 12 12 12 11 11 5 2 2 3 2 1 1 1 2 1 1 5 4 3 6 3 1 4 5 6 6 4 2 6 5 3 3 2 4 6 7 4 1 2 2 3 3 1 1 3 3 3 3 3 3 1 1 1 1 1 2 5 5 7 9 9 9 9 8 10 10 10 11 13 14 13 15 13 15 13 14 14 7 14 15 16
17 17 17 16 14 12 11 12 11 9 9 4 2 3 1 1 1 1 1 2 3 2 2 2 3 4 3 2 2 2 4 7 6 2 2 4 2 0 3 5 6 6 7 1 2 4 4 6 8 1 3 5 2 4 5 2 0 1 1 1 1 4 5 5 3 4 7 8 10 10 9 6 10 13 13 13 11 12 11 11 12 9 9 11 17 17 17
17 17 16 16 14 11 10 10 9 8 5 3 3 2 1 0 0 0 2 2 2 1 0 2 2 3 3 2 4 5 6 7 5 7 3 6 4 0 5 8 9 6 5 6 7 9 8 7 9 9 8 10 3 3 3 4 2 2 2 1 1 2 4 6 3 3 5 3 5 5 3 8 10 12 10 7 8 9 10 4 6 2 5 5 6 9 9
17 17 16 15 13 11 9 9 8 5 3 1 1 2 2 1 1 1 1 0 2 3 2 2 1 2 2 4 6 4 5 6 6 6 2 1 6 5 5 6 5 8 7 9 9 7 5 9 12 12 12 11 12 11 11 7 7 5 5 3 2 4 2 3 2 4 6 2 1 5 10 7 3 5 3 5 4 6 11 5 9 10 6 4 5 5 5
16 17 15 14 13 13 12 10 9 5 2 2 1 1 1 1 2 1 1 1 1 1 1 2 2 2 4 4 6 5 5 5 5 5 2 2 5 5 5 6 5 6 6 8 6 7 11 12 14 12 12 15 15 14 14 15 12 9 6 2 3 4 5 6 4 2 5 3 5 6 1 6 6 7 4 6 3 6 9 8 10 11 9 4 5 7 9
16 16 15 14 14 13 12 11 9 6 0 2 2 3 2 1 2 2 1 1 1 2 1 3 3 5 5 7 5 6 7 7 6 3 7 4 9 7 5 5 2 5 4 5 9 10 12 11 10 10 13 14 15 16 16 15 13 11 10 8 5 6 5 6 4 2 4 3 6 2 5 5 3 5 8 10 6 4 13 10 10 15 17 17 14 14 13
15 15 14 14 14 12 11 10 8 7 3 2 2 3 1 1 1 2 1 1 2 1 3 3 2 6 7 7 7 7 7 7 5 6 6 6 5 3 1 2 3 5 7 12 12 10 6 9 10 9 11 8 9 13 15 16 15 13 10 10 8 5 6 5 4 4 3 5 1 3 3 2 1 2 7 10 3 4 14 6 11 17 16 15 13 15 14
16 15 15 14 14 13 12 11 9 7 5 2 3 2 2 1 2 1 1 1 2 2 4 6 5 5 4 4 5 7 5 7 5 3 3 1 4 7 6 3 5 7 9 8 7 2 4 2 6 5 6 2 4 5 10 13 13 14 14 11 10 8 5 5 5 3 4 4 2 7 5 2 3 4 7 9 5 9 7 5 4 13 14 16 15 17 16
15 15 14 15 14 13 12 12 10 8 6 3 3 3 3 3 3 2 1 0 2 2 3 4 0 3 5 5 4 5 3 5 6 5 3 3 2 3 4 9 8 7 8 4 3 2 1 2 4 6 5 2 4 3 2 6 8 15 15 13 10 9 8 6 3 2 2 1 3 4 1 6 2 3 4 5 7 7 10 4 4 9 16 15 15 15 16
15 15 15 15 15 14 12 10 8 5 5 2 2 3 3 3 2 2 2 2 0 3 3 6 4 3 3 4 3 5 3 4 3 5 6 1 3 7 6 5 7 5 3 0 0 1 2 2 5 5 3 7 4 4 4 3 7 8 11 12 11 9 10 7 2 2 4 2 1 3 2 1 2 6 9 9 7 8 2 4 2 7 14 15 16 17 18
15 15 15 15 14 12 11 10 8 5 3 2 2 2 2 3 3 3 2 1 2 5 0 2 2 1 2 5 3 1 1 2 3 4 5 6 5 5 10 7 4 2 5 3 2 1 2 1 3 5 7 5 6 5 6 2 8 8 11 12 13 11 8 6 4 4 4 4 2 4 4 3 4 9 11 12 9 5 5 3 2 11 14 15 15 16 17
16 16 15 14 12 13 12 10 9 7 3 2 3 2 2 2 3 3 2 2 1 3 2 2 3 2 3 1 4 3 3 3 1 1 2 5 3 3 5 5 7 2 2 4 2 2 3 2 6 5 6 3 4 5 5 4 4 7 7 9 6 7 5 6 6 5 7 7 5 2 4 2 7 11 14 14 8 3 3 1 4 10 12 14 14 15 15
15 15 14 13 12 12 11 9 7 7 4 2 2 1 3 3 3 3 1 2 2 3 2 1 2 3 2 2 3 3 3 3 4 4 5 4 1 3 6 2 1 4 5 4 2 2 5 4 3 3 5 8 6 6 8 4 5 2 9 8 4 4 3 3 3 6 7 5 5 6 3 1 6 13 13 8 5 4 4 3 5 8 11 13 13 13 15
15 14 13 13 12 11 10 8 7 5 4 4 2 1 1 2 3 6 4 1 1 4 3 2 1 5 1 2 2 2 2 2 1 3 1 3 3 7 5 3 2 1 5 2 3 2 3 6 6 3 3 5 4 6 4 2 2 4 1 3 1 2 4 2 4 3 3 2 3 1 0 1 11 16 6 14 7 7 7 4 5 8 10 12 13 12 15
14 13 13 13 12 11 10 8 5 3 2 2 3 0 2 0 3 3 2 1 1 3 5 2 1 5 2 5 6 6 4 7 3 2 4 4 3 2 3 2 4 2 3 3 6 5 3 6 5 3 3 4 6 5 9 7 2 8 6 1 5 7 1 2 1 4 2 2 1 1 3 7 9 10 7 5 5 4 10 11 9 9 10 12 11 13 13
13 13 13 13 12 11 8 6 4 2 1 3 5 1 1 2 0 2 4 3 3 4 4 3 2 6 8 8 9 8 9 10 9 6 4 4 1 2 3 2 3 1 1 1 2 2 1 2 3 4 5 4 2 5 8 4 6 6 5 4 4 7 6 2 3 3 3 2 3 4 2 5 7 7 7 6 7 9 9 9 9 10 10 10 10 13 15
13 13 13 12 12 10 7 6 3 1 1 3 5 1 2 0 1 0 3 1 2 3 3 4 3 5 5 8 12 12 11 10 6 5 6 3 4 1 3 2 3 2 1 1 1 3 4 3 4 3 4 2 6 6 3 2 2 6 7 6 4 3 8 4 1 4 9 6 4 3 6 10 7 5 6 6 8 9 7 8 9 10 9 9 10 13 14
13 12 12 12 10 9 7 6 4 0 1 2 5 3 1 1 1 1 0 1 1 4 4 0 3 3 2 6 6 1 4 5 9 9 5 6 3 4 1 2 2 1 1 4 5 3 3 2 4 1 3 3 6 4 6 4 7 7 5 6 5 5 10 5 4 9 6 4 4 9 11 12 8 1 6 6 5 5 7 6 6 9 12 10 10 12 13
12 12 11 10 10 8 8 7 4 2 2 2 4 3 2 1 1 1 2 0 1 1 2 6 3 7 4 6 7 6 5 5 5 8 8 9 9 5 4 2 2 1 4 5 1 2 1 3 3 1 4 3 5 5 3 4 3 9 6 6 7 4 11 3 9 10 4 7 8 10 14 13 8 4 5 5 7 7 9 8 7 8 9 11 10 12 13
12 12 10 10 8 8 8 6 3 1 3 3 4 3 2 2 1 1 0 0 1 0 3 3 6 5 3 6 4 4 6 3 7 10 11 12 13 11 4 1 2 1 2 1 1 5 4 3 2 2 4 2 5 4 5 6 5 6 7 9 7 9 9 6 11 6 7 6 6 16 13 6 10 6 2 4 6 8 11 11 14 10 11 12 12 10 12
12 11 10 9 8 7 7 5 2 2 4 2 2 1 2 2 2 4 3 2 2 1 2 3 5 7 3 7 5 4 4 3 3 5 7 8 7 4 4 3 3 3 3 5 1 2 1 2 0 3 4 3 5 4 4 4 4 5 6 9 10 6 7 10 7 7 6 9 11 14 10 7 9 12 11 11 9 8 10 11 13 11 10 11 12 12 11
12 10 9 8 8 7 6 5 1 5 4 5 3 2 2 2 3 4 3 1 1 3 2 3 5 8 7 4 4 5 7 6 3 1 4 7 7 4 3 2 2 3 3 4 5 3 3 4 5 5 3 2 4 3 3 3 2 1 8 11 10 9 11 10 9 8 8 11 12 10 10 13 13 14 14 11 9 7 11 12 12 13 11 10 12 13 11
11 10 9 8 7 7 5 4 2 5 6 6 2 1 2 5 5 4 4 2 0 1 1 3 4 3 2 5 7 4 6 7 7 7 6 6 4 4 2 2 0 2 1 0 1 2 2 2 2 2 3 3 4 4 5 5 5 8 11 13 12 10 11 12 11 12 8 10 12 12 10 11 13 14 14 13 10 8 12 14 13 12 11 10 10 12 11
11 10 9 8 7 6 5 3 3 5 7 4 2 0 1 1 1 5 5 4 3 1 0 2 2 1 2 1 1 2 3 6 6 8 8 5 5 4 3 1 1 1 1 1 2 3 2 2 2 2 3 4 3 4 3 4 4 4 7 11 11 11 12 10 9 10 11 13 12 12 12 13 12 13 13 12 10 8 10 13 13 10 11 10 9 11 10
11 10 9 8 7 6 3 2 3 6 5 1 1 1 2 1 1 2 5 4 3 2 1 2 4 4 5 2 1 0 1 2 4 3 3 2 2 1 0 0 0 1 2 3 2 1 2 3 3 4 2 5 5 3 4 4 4 4 11 12 11 12 13 13 10 9 11 11 11 13 11 10 10 11 10 9 10 8 10 10 12 12 12 11 10 10 10
12 10 9 8 6 5 4 3 2 6 2 2 2 0 1 1 1 0 4 4 4 0 0 2 2 2 1 2 1 0 2 1 1 1 1 1 2 1 1 2 1 0 1 1 1 1 2 2 1 4 2 5 4 2 3 3 5 9 12 11 11 11 11 11 12 13 13 12 14 11 9 13 12 12 10 12 8 7 8 9 10 10 10 9 9 9 10
11 9 8 7 6 5 3 3 4 6 4 5 7 6 4 5 3 3 6 4 1 1 1 1 1 1 0 1 2 1 1 1 1 2 0 1 0 1 1 1 1 1 2 1 1 0 1 0 1 3 1 1 2 2 2 5 7 8 9 10 10 11 12 12 12 12 13 13 12 11 12 13 15 15 12 11 10 9 8 9 10 8 6 7 8 7 6
10 9 7 6 5 4 3 3 2 5 3 2 2 2 2 4 4 7 4 2 1 0 1 1 1 1 3 4 0 1 1 0 1 1 0 1 1 2 1 2 4 2 4 3 1 0 2 0 2 3 1 2 1 1 2 5 8 8 8 8 9 10 9 10 9 13 14 13 13 12 13 13 12 10 11 12 12 11 9 8 8 9 8 6 6 5 7
10 8 7 4 4 3 5 5 3 1 1 2 2 3 2 6 7 7 4 2 1 0 0 0 2 1 3 4 0 2 1 2 1 1 3 2 2 0 1 1 3 2 2 0 2 2 2 2 1 2 4 3 2 1 1 6 8 8 8 9 10 10 9 10 10 13 13 12 13 14 15 15 15 15 13 13 12 11 11 9 8 8 8 6 6 7 4
9 2 4 4 4 4 2 2 1 2 1 2 2 2 8 6 6 3 1 1 1 1 0 1 1 2 4 1 1 1 1 1 1 1 0 0 2 2 1 2 0 1 1 2 0 3 1 2 2 4 4 2 3 4 5 6 7 8 8 8 9 10 11 12 13 15 14 13 13 14 16 15 15 14 13 13 13 13 12 10 9 7 8 7 6 7 6
3 8 9 7 3 2 1 2 1 2 2 1 4 7 8 6 2 3 2 1 1 2 3 2 0 4 6 1 1 3 0 1 0 1 1 1 2 0 2 1 2 1 1 2 1 1 1 2 2 1 3 3 4 5 4 6 6 7 8 8 8 8 9 9 12 12 13 14 15 14 14 15 14 13 13 14 14 13 13 13 11 10 10 9 6 5 7
5 4 3 1 2 2 2 1 1 2 4 6 5 2 4 4 1 2 2 1 1 1 1 2 3 3 0 1 2 2 1 2 1 0 2 1 1 0 0 1 2 1 0 1 3 2 1 2 1 1 0 1 2 4 4 5 6 4 3 5 6 6 7 8 9 11 13 13 12 15 15 14 15 15 14 15 15 15 12 10 11 10 8 8 8 7 6
2 1 3 2 2 1 2 1 1 2 2 2 3 1 1 1 1 1 1 1 1 1 1 2 5 2 3 1 5 2 2 0 0 1 0 1 2 2 0 0 0 1 0 1 1 1 1 2 1 1 2 2 5 6 5 4 5 5 4 4 4 4 5 6 7 10 12 12 13 15 14 14 15 14 13 13 13 13 12 12 10 11 12 9 8 7 7
2 1 1 1 1 2 1 3 4 1 0 0 2 2 1 1 1 1 0 1 1 1 2 3 3 4 5 6 2 2 0 2 1 2 2 1 0 1 1 1 2 1 0 0 2 0 2 0 0 1 3 4 4 4 5 5 5 6 3 4 6 5 4 5 6 6 6 7 8 10 11 12 14 12 11 11 12 13 14 13 13 12 12 11 11 8 7
1 1 1 0 2 1 0 1 1 0 1 1 1 1 1 1 0 1 0 0 1 3 2 2 1 1 1 1 2 4 2 2 1 1 2 1 1 2 1 0 1 1 1 1 2 3 1 1 0 1 2 4 5 5 5 6 4 5 5 3 3 3 5 6 6 6 7 8 8 9 10 11 11 11 13 14 12 11 12 13 12 12 15 14 13 11 8
3 1 1 3 2 2 1 2 2 1 0 0 1 2 1 2 0 1 1 0 2 1 3 1 2 2 3 7 5 3 2 2 2 1 1 0 1 1 2 0 1 1 0 2 2 3 2 0 0 1 2 4 4 4 3 5 5 4 6 5 4 3 4 5 6 7 6 7 7 8 8 9 11 10 11 12 11 11 12 14 16 16 15 13 12 12 12
2 3 3 2 2 1 1 1 1 1 1 1 2 2 1 2 0 0 2 1 1 1 4 1 2 1 0 1 0 0 1 0 1 0 1 1 1 1 1 0 1 1 1 1 2 1 1 0 1 1 2 4 4 5 4 5 5 4 5 4 3 3 3 4 4 6 6 6 7 7 7 9 9 10 10 11 14 15 14 13 15 13 13 12 11 13 13
3 1 1 0 1 1 0 1 0 1 1 1 2 1 1 2 5 2 1 4 1 2 2 1 4 3 4 1 2 0 0 1 2 2 1 1 0 1 0 0 0 1 1 2 2 1 1 0 0 3 4 3 3 4 4 5 6 6 5 4 3 2 2 3 3 4 6 5 4 5 5 6 8 9 10 11 12 14 14 13 15 16 15 14 13 13 13
2 1 1 0 0 1 0 2 1 2 0 2 2 2 1 2 5 2 3 4 2 5 2 1 1 1 3 2 1 0 1 1 1 2 2 0 0 0 0 2 1 1 1 0 2 2 1 0 2 3 3 4 5 5 4 3 4 5 5 5 3 3 2 3 3 3 3 3 4 5 5 6 7 9 11 12 11 10 12 13 12 14 15 14 14 16 16
1 1 0 2 3 1 1 1 0 1 1 2 2 5 4 7 3 5 6 2 2 5 5 5 0 2 2 2 1 1 0 2 1 1 1 1 0 1 0 0 2 3 3 3 2 1 1 2 3 4 3 3 4 5 4 3 4 4 4 3 3 3 2 3 3 3 3 4 4 3 5 5 6 8 10 10 11 12 12 12 13 12 13 16 16 15 14
0 1 2 1 1 1 1 0 2 3 2 3 5 5 6 6 6 6 3 2 4 5 4 2 3 4 0 0 0 1 1 0 0 1 1 1 0 1 1 3 1 0 1 2 1 2 3 3 3 3 4 4 5 5 5 4 3 4 5 4 3 3 3 2 2 3 4 5 5 6 6 7 8 8 9 11 12 12 14 13 14 14 13 13 13 14 15
1 1 1 1 3 1 1 4 2 3 3 5 4 3 4 1 2 5 5 4 4 1 2 1 1 1 0 1 2 1 0 0 1 1 0 0 1 2 1 2 1 1 2 1 3 3 4 4 3 4 4 4 4 4 4 4 4 4 5 4 4 3 3 2 2 3 3 4 5 5 6 7 8 8 9 10 11 11 12 12 12 12 13 13 13 14 16
2 1 1 1 1 2 2 2 1 3 6 4 2 3 2 2 5 8 6 1 1 4 1 1 1 1 1 0 2 1 1 1 2 1 1 2 1 1 0 1 1 3 4 2 3 4 4 3 3 3 4 4 4 4 3 3 3 4 4 4 4 4 3 3 3 3 2 3 3 3 4 5 5 6 7 8 9 10 10 10 11 11 12 13 14 13 14
0 1 1 0 2 3 1 0 1 4 6 5 2 3 1 1 5 8 2 1 1 1 1 1 2 2 1 1 1 2 0 1 1 0 2 0 1 0 2 1 3 5 3 2 2 5 5 4 3 3 4 4 4 4 4 4 4 4 4 4 3 2 2 3 4 3 4 2 1 1 2 4 5 5 6 7 6 6 8 10 10 11 11 11 12 12 13
1 0 2 3 3 4 2 3 4 5 5 5 4 5 3 3 4 3 2 1 1 2 4 1 0 1 1 2 1 1 0 0 1 0 1 2 1 1 2 2 3 4 5 4 5 4 4 4 2 3 4 5 5 5 3 3 3 3 4 3 2 2 3 4 4 5 5 6 4 3 3 3 3 3 3 3 3 5 7 9 9 9 9 10 11 12 11
0 0 1 2 2 3 4 1 1 6 8 7 5 5 4 2 4 4 0 3 3 3 2 0 1 1 1 1 0 1 0 2 0 1 1 2 2 1 3 4 3 4 5 4 4 2 2 3 3 3 3 4 4 4 4 4 3 4 4 4 2 3 3 3 4 3 3 4 5 4 2 2 3 3 3 4 4 5 7 7 8 9 9 8 8 10 11
Wind_Direction
338 338 340 340 337 338 337 334 336 348 345 355 354 337 31 30 249 280 310 333 0 68 72 40 36 25 328 306 259 268 321 1 331 17 6 10 6 26 41 359 55 356 86 295 7 50 237 178 210 187 183 240 210 182 48 16 326 309 264 304 311 295 130 276 274 289 263 266 258 271 246 221 162 208 8 4 342 25 329 318 221 193 209 194 243 248 252
335 335 339 336 336 334 336 334 334 351 359 355 331 2 51 332 306 318 315 340 3 73 47 17 356 359 322 3 321 325 335 16 11 25 16 17 353 20 344 348 55 198 356 298 57 294 42 242 114 324 235 283 218 134 142 45 327 356 330 355 344 22 292 101 332 346 342 312 44 83 12 38 63 320 309 291 321 331 296 236 196 250 192 182 176 239 248
332 334 333 334 336 334 334 331 332 348 351 2 343 351 321 286 252 256 308 354 30 73 101 95 48 10 348 320 14 5 11 10 44 353 35 351 9 344 10 22 345 41 319 319 315 288 181 296 284 62 170 230 196 208 160 159 191 271 300 289 306 273 291 25 112 159 187 211 218 204 328 335 311 272 300 309 344 343 354 15 350 237 248 183 208 239 238
331 332 333 333 334 335 335 328 335 340 347 356 354 330 333 3 15 336 341 4 24 74 103 101 52 121 16 9 346 4 356 344 6 15 75 16 344 348 297 7 33 38 5 3 341 320 349 144 248 70 265 294 275 210 183 214 187 277 300 316 347 247 211 202 217 175 206 238 138 194 261 316 314 303 306 300 310 288 263 253 275 245 253 221 235 234 253
330 331 333 333 335 337 333 327 335 336 342 357 8 331 104 285 65 338 351 329 38 16 5 25 22 6 327 39 327 11 6 322 321 358 26 7 356 326 30 45 30 7 4 353 316 256 274 284 314 253 250 237 249 228 200 218 246 289 312 349 321 257 275 233 240 248 252 284 292 297 301 281 279 293 292 298 295 296 279 216 236 20 42 263 190 256 260
332 331 333 333 334 334 330 326 333 333 342 345 40 18 354 56 279 118 222 102 318 1 352 11 344 322 349 261 333 8 355 4 6 323 52 357 357 12 318 70 84 43 322 310 268 310 290 258 244 277 252 292 301 309 234 190 241 173 254 1 4 286 260 239 229 258 255 264 273 279 272 253 269 273 277 284 288 288 270 255 246 266 233 243 345 247 246
332 331 331 330 332 333 328 327 330 337 337 351 64 67 322 102 113 50 275 13 9 168 258 318 315 316 317 312 36 357 352 360 39 336 310 333 346 39 326 335 348 326 325 325 266 291 327 293 282 253 291 237 278 285 334 293 188 161 307 319 231 313 249 271 270 276 270 264 267 257 256 266 268 260 261 257 269 280 271 262 246 227 241 272 283 281 261
328 329 328 329 335 331 326 324 327 340 337 345 42 118 87 19 64 9 308 237 289 288 329 311 354 354 339 14 312 330 336 357 352 332 285 317 301 52 277 295 310 314 308 279 237 246 232 264 284 239 283 289 191 253 213 232 278 125 262 237 215 209 258 246 216 240 261 250 252 253 251 234 267 272 267 269 275 288 281 251 253 243 253 246 254 263 274
329 329 327 331 334 328 323 324 325 342 17 350 15 331 108 264 231 359 308 325 268 241 206 328 340 8 331 55 346 340 10 349 18 306 220 225 265 219 294 301 307 304 294 286 256 259 260 262 256 273 273 269 216 202 290 171 180 174 216 217 231 202 277 324 304 308 289 238 211 238 283 289 271 269 270 291 341 340 343 7 352 276 251 275 263 264 270
329 331 331 333 334 327 328 328 329 358 84 314 282 319 56 354 310 36 165 274 343 342 287 302 347 341 255 331 345 331 314 320 351 322 251 240 232 248 264 280 285 290 303 288 275 278 269 270 276 268 260 251 253 243 244 198 186 186 200 195 170 177 256 267 298 274 253 236 97 304 292 277 237 211 249 335 339 335 332 352 9 7 310 249 255 237 318
327 331 334 334 331 331 331 327 327 343 32 326 314 292 33 347 322 309 154 272 229 208 356 234 153 300 313 331 320 321 312 332 334 333 302 277 262 235 247 268 283 274 269 262 265 279 279 273 268 261 250 242 243 240 237 232 214 190 162 157 211 190 220 261 274 235 260 351 328 305 294 189 211 124 78 39 359 341 354 328 14 0 4 316 285 279 304
330 332 332 327 330 326 324 320 315 318 198 239 216 253 199 211 250 226 228 8 318 137 217 276 289 294 305 311 311 308 320 326 316 305 281 275 283 292 276 272 234 279 231 258 298 296 290 277 252 248 242 242 240 238 232 229 223 205 178 170 163 182 206 236 231 231 275 338 349 200 195 206 98 124 43 23 349 25 341 297 41 16 6 357 349 341 333
328 328 328 326 327 324 320 322 316 318 287 267 256 284 306 141 236 237 190 178 276 231 288 276 246 260 280 291 301 316 322 311 302 298 281 275 288 293 226 273 259 259 303 307 309 312 320 295 298 275 274 262 240 234 231 223 221 202 193 181 164 177 206 229 227 226 340 4 324 202 201 89 329 117 42 24 83 25 348 309 41 24 10 356 344 331 323
329 331 329 326 322 324 325 324 318 308 295 250 239 230 248 209 277 53 179 149 264 206 250 283 275 278 289 307 309 312 316 313 301 281 287 268 278 288 288 232 248 281 295 302 297 312 310 6 321 330 304 282 247 237 222 215 205 192 182 179 168 173 189 224 237 170 167 221 178 237 323 275 360 1 12 0 346 336 338 316 348 32 4 358 343 331 337
329 330 327 323 323 323 321 317 313 308 303 268 229 235 230 225 216 227 238 217 271 277 171 270 346 318 321 302 320 317 318 297 327 309 248 270 269 230 264 285 290 296 303 317 322 16 360 321 310 318 292 333 294 287 59 225 181 185 171 164 168 176 195 200 207 213 185 60 303 331 199 193 200 142 323 305 286 302 284 205 275 17 360 355 346 338 335
327 327 323 324 324 324 324 325 318 309 310 289 205 236 233 219 191 186 193 183 200 299 243 234 278 295 311 303 298 302 294 303 302 299 317 295 255 302 286 272 291 303 310 46 142 332 330 338 301 309 298 287 272 281 240 174 132 148 145 155 168 187 210 251 247 280 30 28 174 233 203 204 144 310 316 308 305 310 293 182 238 14 357 346 342 339 340
327 323 325 327 331 333 340 339 336 338 332 238 217 209 244 177 183 200 187 190 163 245 163 204 219 232 291 295 290 239 216 271 309 340 331 335 324 305 300 316 313 27 331 353 340 348 307 242 230 237 259 266 287 275 276 201 119 139 154 170 185 195 203 205 222 236 226 235 253 272 226 252 316 329 317 310 303 335 144 185 80 354 347 345 339 342 344
327 327 332 336 338 340 340 338 337 341 347 214 177 223 243 175 183 133 206 161 204 283 251 239 221 243 246 251 291 298 278 283 286 258 248 286 292 317 315 341 338 343 21 4 348 331 284 261 327 302 296 239 264 288 358 359 115 133 156 163 172 192 194 197 212 209 232 226 247 310 320 334 348 325 313 305 297 174 128 146 2 343 341 346 341 335 340
330 333 338 338 336 335 337 340 345 343 7 127 157 217 249 209 169 161 140 214 186 260 265 228 182 233 267 304 254 288 288 308 313 300 318 326 273 238 274 257 32 320 9 11 330 333 315 304 214 277 306 321 338 3 331 7 20 58 123 150 163 171 147 172 183 227 222 216 197 219 210 140 321 323 315 321 42 37 60 57 36 354 350 345 346 338 346
331 337 337 336 336 337 340 344 346 347 359 151 166 194 250 161 185 178 169 176 193 263 302 271 242 262 263 270 290 323 320 286 221 285 284 275 270 335 348 27 318 347 321 352 343 327 319 335 337 307 317 314 348 319 332 47 22 32 342 335 52 93 181 152 197 235 195 169 225 129 145 313 345 320 321 24 73 357 341 350 23 12 359 351 345 352 342
336 338 338 337 338 342 344 345 351 347 357 118 134 163 332 303 171 197 180 106 354 303 302 284 253 251 246 249 230 223 212 240 198 209 217 222 263 31 16 326 294 12 309 7 342 341 344 313 335 333 296 308 320 336 347 325 15 28 12 86 62 352 114 21 345 1 312 70 87 126 24 328 335 22 54 64 84 1 357 356 3 4 6 351 345 339 343
337 337 337 339 338 340 346 354 360 9 15 119 123 71 7 297 188 180 174 151 218 227 247 243 214 256 251 247 246 228 227 234 229 205 242 284 274 185 233 253 286 187 259 305 323 297 316 312 280 311 324 319 288 326 316 339 22 330 5 355 110 33 21 335 296 36 33 315 22 32 53 357 19 58 60 40 47 35 360 8 353 348 348 344 342 336 335
337 339 340 340 343 344 352 355 14 345 22 132 130 129 189 352 330 56 109 176 238 257 266 285 295 280 284 255 234 229 227 226 233 212 198 186 302 292 216 248 277 195 262 93 225 241 272 292 284 295 293 344 337 315 329 346 318 355 10 13 355 46 9 302 282 342 302 250 237 96 29 2 352 63 78 53 28 23 1 360 350 339 333 336 337 329 326
337 339 339 339 341 346 345 349 345 329 281 179 157 130 209 198 244 93 181 198 307 311 305 334 20 335 325 316 314 202 191 212 212 216 181 166 191 285 301 221 230 262 190 213 209 266 288 247 263 335 304 333 330 317 343 348 27 341 339 7 349 4 13 5 20 334 324 134 83 30 353 326 304 149 101 89 59 21 338 339 346 326 323 327 334 321 320
337 337 338 339 341 343 344 340 339 315 199 226 168 168 112 41 305 167 113 76 41 18 334 308 268 243 284 278 278 278 229 203 158 168 173 187 196 196 223 160 187 180 300 326 77 272 245 290 312 331 313 10 355 328 338 334 15 359 12 11 351 9 0 347 357 331 339 329 337 2 337 298 258 151 94 42 5 357 336 324 317 315 311 309 312 315 316
337 337 335 336 338 340 341 344 349 116 177 225 162 152 162 203 221 158 82 41 145 279 318 310 286 307 319 339 332 300 287 223 172 170 183 190 198 208 202 45 311 132 218 242 173 272 274 266 283 299 332 314 28 346 330 332 308 335 23 15 350 312 329 10 333 322 317 306 359 348 332 55 93 87 72 5 345 330 321 317 313 317 311 312 308 309 311
333 332 329 329 330 336 342 348 13 189 176 171 115 101 143 258 184 168 166 178 86 358 14 277 284 292 343 323 279 302 340 0 163 183 190 200 211 216 231 279 314 325 326 323 249 251 285 298 297 338 340 319 347 306 308 317 359 352 6 357 349 341 14 340 330 345 8 357 337 342 340 320 315 309 305 306 311 307 302 302 299 301 304 306 304 305 306
328 327 325 324 322 325 333 334 54 145 149 138 134 175 187 214 233 206 243 221 124 167 221 257 291 290 304 259 297 351 7 1 23 174 195 199 195 188 188 227 300 321 340 351 358 358 343 0 359 337 320 8 342 319 320 277 275 286 13 360 351 4 344 347 353 344 327 325 326 323 300 283 276 282 287 285 279 274 278 282 282 288 289 292 296 300 304
324 322 320 318 313 313 319 315 185 151 148 134 121 126 272 237 232 226 226 227 239 315 287 279 287 330 359 304 321 345 10 25 32 42 52 70 94 111 132 56 46 303 317 356 138 22 18 334 298 352 336 324 307 316 339 2 15 27 1 343 350 350 346 350 344 328 310 325 323 317 306 294 290 283 278 275 266 260 266 269 269 269 278 277 280 283 287
319 316 314 310 304 304 294 300 174 164 147 135 149 92 1 324 219 208 210 192 190 146 82 355 15 257 295 311 298 338 8 26 35 47 52 55 56 53 46 58 352 25 97 35 310 15 343 330 311 262 300 329 352 336 4 344 30 17 342 350 348 347 348 347 342 342 334 326 318 314 303 291 283 279 275 274 268 246 248 258 262 263 268 272 271 278 280
314 311 307 301 294 293 286 283 204 186 156 109 84 61 46 35 301 193 185 186 171 98 148 152 243 307 324 258 169 342 165 48 46 37 42 73 93 86 292 47 351 8 40 357 34 268 315 17 322 331 324 359 7 25 349 336 348 345 353 349 351 349 348 344 340 337 328 322 324 316 296 300 306 305 293 281 267 255 249 259 265 266 265 271 273 274 283
311 305 301 298 283 269 267 238 213 175 155 130 127 165 188 192 184 246 175 163 135 122 103 345 333 356 311 302 282 185 132 91 78 24 345 6 358 346 19 84 136 324 123 134 253 351 12 281 346 311 358 338 354 16 342 338 0 4 336 347 348 346 340 337 342 343 338 341 341 328 337 340 332 331 321 320 271 244 239 251 254 256 267 270 273 275 279
302 298 291 288 284 265 226 193 192 168 190 242 258 267 258 236 222 188 146 121 86 198 143 91 198 272 317 274 304 314 105 42 5 46 40 308 286 354 25 7 27 32 296 88 2 114 259 268 322 342 27 28 33 23 358 12 7 339 339 340 344 343 342 341 342 340 337 342 355 353 338 329 323 319 321 334 319 287 268 259 262 269 266 261 244 248 265
294 290 283 274 266 248 230 160 164 206 275 319 316 281 237 172 134 151 138 92 131 181 89 123 350 351 261 323 105 275 71 118 253 54 339 306 152 71 339 12 349 25 325 55 275 43 313 141 36 276 348 22 97 349 27 341 348 340 335 333 341 339 336 336 339 345 341 345 351 346 339 332 324 327 343 350 338 330 295 264 269 274 273 271 267 238 229
297 282 265 250 237 204 144 124 82 91 206 262 250 258 186 156 152 166 156 135 90 324 23 313 114 52 354 338 70 269 154 105 257 206 155 266 2 146 43 47 322 72 289 92 20 43 337 2 275 23 353 300 332 24 355 332 338 337 337 339 345 340 341 353 355 346 337 339 351 347 343 344 351 353 346 341 339 334 334 308 279 271 279 274 271 267 243
317 247 189 190 157 148 103 81 99 90 8 243 234 168 140 130 124 125 134 111 139 149 96 244 99 193 155 212 275 273 145 347 308 44 222 289 3 6 62 114 91 272 3 42 219 345 22 312 36 5 325 25 9 353 334 342 335 339 337 339 339 352 350 347 340 341 341 346 351 350 350 352 359 354 347 345 343 343 339 332 313 284 274 276 270 271 271
90 130 130 119 101 43 29 210 234 164 203 212 175 138 114 114 50 58 21 17 347 100 159 168 273 235 178 212 241 274 126 293 352 24 335 120 193 293 68 45 120 141 44 9 18 108 266 353 100 347 352 14 322 322 330 341 346 336 340 332 337 343 342 336 342 341 345 354 356 359 357 355 357 358 355 351 348 348 349 345 335 316 288 282 274 258 261
124 114 97 56 57 39 341 302 210 243 175 142 137 75 359 30 120 325 2 38 259 148 320 81 239 253 353 110 249 238 147 258 98 127 305 206 66 308 181 125 219 164 332 226 252 181 92 37 64 123 269 233 246 282 329 336 329 319 314 322 336 342 335 332 332 349 359 355 356 355 355 356 358 360 359 355 351 349 346 338 333 334 316 287 282 275 270
128 91 50 34 99 208 197 250 261 96 72 9 50 93 310 47 61 2 266 258 28 266 254 141 247 193 148 206 271 284 179 142 46 71 124 260 118 308 338 99 289 78 314 24 275 173 17 338 357 32 320 320 351 332 328 303 307 306 321 334 334 326 329 329 339 350 357 359 351 350 349 349 351 348 354 357 353 351 349 350 347 340 336 329 303 282 270
58 59 146 67 212 243 280 304 328 328 31 39 335 99 310 296 78 287 241 11 316 236 116 272 220 180 189 199 209 303 250 113 189 266 186 295 180 163 229 94 261 111 224 122 245 87 115 83 298 15 297 326 316 303 313 321 310 302 309 338 327 313 328 331 332 330 332 330 341 343 344 347 356 352 351 349 351 354 356 355 354 345 343 335 332 318 281
63 110 134 197 223 204 255 277 347 27 349 340 10 360 75 337 205 194 71 27 226 248 190 188 333 333 251 131 160 221 300 61 119 126 122 161 244 79 66 108 201 82 316 264 266 86 64 76 159 182 260 314 305 317 320 321 311 302 309 291 293 314 318 323 324 324 334 338 344 348 352 347 344 348 356 357 354 353 356 360 359 354 351 347 339 334 319
188 172 158 104 91 77 26 27 36 9 8 210 101 288 211 227 289 360 143 140 275 282 300 172 282 216 248 184 204 174 276 182 145 134 93 349 288 124 211 264 3 107 238 231 127 51 79 124 224 276 297 315 305 310 308 318 313 308 303 307 308 316 315 318 318 321 329 334 334 341 346 346 349 348 352 359 0 1 5 4 3 2 354 342 347 354 349
79 52 56 68 41 14 110 40 317 109 93 350 35 343 360 21 286 67 289 275 312 124 262 208 233 212 248 104 13 200 194 181 136 27 77 233 294 53 100 7 64 9 176 69 71 61 52 237 247 256 307 308 319 308 314 311 307 296 280 278 285 297 302 319 321 320 328 334 334 335 336 344 350 351 351 357 7 11 9 9 7 359 352 348 349 354 350
98 85 71 360 56 312 168 2 230 340 342 91 97 290 307 345 308 355 341 280 273 298 250 341 297 47 303 280 164 200 34 4 68 83 7 294 98 240 115 268 224 250 62 31 48 99 218 175 76 306 297 300 316 326 328 330 326 321 309 299 297 307 335 323 321 330 330 324 319 320 323 341 347 354 2 8 10 11 8 9 9 6 4 5 5 1 355
117 14 26 30 360 264 56 311 344 102 359 273 155 205 176 244 259 186 220 245 146 260 284 177 202 159 239 271 52 70 126 183 306 99 253 137 325 298 132 271 261 30 78 284 337 329 356 268 271 304 340 342 326 316 321 322 324 312 293 285 296 335 351 342 331 325 320 325 321 330 346 344 354 359 7 11 10 12 15 12 1 11 12 14 16 15 8
146 198 102 61 329 304 102 247 10 3 284 158 207 205 189 234 206 243 251 169 229 282 317 295 220 164 260 244 148 230 340 89 50 247 187 94 110 321 252 46 73 60 20 43 38 287 246 257 311 309 302 299 306 307 316 325 322 324 345 314 288 300 318 346 339 341 339 331 328 350 355 353 360 6 9 9 10 10 12 13 11 10 17 25 21 16 13
79 30 87 121 122 277 85 249 239 206 186 215 226 197 199 221 208 219 246 187 227 250 271 245 190 192 176 124 130 348 26 68 114 292 70 48 47 273 25 85 11 7 66 314 305 275 284 285 296 291 308 310 316 317 322 332 334 337 325 309 296 292 315 340 338 356 341 344 344 356 5 4 6 7 11 13 15 12 10 9 12 13 18 27 25 24 24
255 248 106 237 242 193 165 248 210 287 256 209 240 202 229 242 341 299 258 212 224 219 280 351 354 351 4 313 90 155 260 360 71 306 38 224 11 41 18 37 8 273 172 174 237 232 249 259 267 292 295 294 298 311 324 329 327 332 325 323 314 305 302 318 346 343 353 356 346 354 8 9 10 10 16 17 15 12 10 8 9 14 19 17 25 32 31
135 128 187 207 203 172 225 265 82 237 263 267 294 311 291 243 247 257 269 217 265 290 237 157 188 102 289 305 68 33 355 337 76 272 6 27 78 221 139 249 345 331 276 193 225 240 235 246 256 269 284 297 311 311 316 318 321 327 326 322 305 285 287 314 334 331 340 360 348 355 12 16 14 11 14 18 19 14 8 8 11 16 21 22 20 23 32
105 307 41 107 323 312 264 37 65 272 299 313 335 285 239 231 272 270 227 269 283 28 11 14 40 92 269 63 358 6 308 308 149 31 56 351 203 204 66 324 234 187 255 255 243 251 260 266 293 305 295 305 310 320 333 329 337 329 324 320 312 315 353 14 360 350 340 314 307 20 37 35 20 11 18 23 19 11 12 19 20 20 21 24 29 26 28
31 132 237 173 178 232 159 280 273 273 303 279 241 242 192 227 215 255 230 156 51 44 35 54 300 67 2 25 50 36 284 181 45 39 163 221 189 96 157 197 237 210 230 234 235 259 275 277 262 268 296 305 306 312 319 318 314 312 313 314 320 3 28 38 30 18 2 349 322 352 34 32 32 24 8 10 21 20 21 26 27 25 25 24 28 34 34
46 283 267 291 222 211 208 216 175 216 235 243 233 242 155 240 243 237 225 91 70 61 318 237 79 33 63 81 208 201 306 41 18 346 350 276 142 143 222 199 229 230 228 250 276 277 270 259 254 266 274 284 302 313 312 316 334 346 350 333 350 63 55 36 29 27 16 1 354 347 339 18 47 39 23 17 10 23 27 24 17 20 23 23 24 29 35